Regional Weather Roundup
Issued by NWS

Home | Current Version | Previous Version | Text Only | Print | Product List | Glossary Off
Versions: 1 2 3 4 5 6 7 8 9 10 11 12 13 14 15 16 17 18 19 20 21 22 23 24 25 26 27 28 29 30 31 32 33 34 35 36 37 38 39 40 41 42 43 44 45 46 47 48 49 50

000
ASUS45 KSLC 251110
RWRUT

UTAH REGIONAL WEATHER ROUNDUP
NATIONAL WEATHER SERVICE SALT LAKE CITY UT
400 AM MST TUE NOV 25 2014

UTZ001>011-023>025-251200-

NORTHERN UTAH

CITY           SKY/WX    TMP DP  RH WIND       PRES   REMARKS
HILL AFB       CLOUDY    33  19  55 S13       30.36F WCI  24
LOGAN          CLOUDY    30  25  81 N6        30.34S WCI  24
OGDEN          CLOUDY    32  20  61 SE8       30.36F WCI  25
PROVO AIRPORT  MOCLDY    25  18  74 SE6       30.42F WCI  18
SALT LAKE CITY CLOUDY    32  20  61 E5        30.37F WCI  27
VERNAL         MOCLDY    20  12  71 NW3       30.32F
WENDOVER       CLOUDY    28  21  74 CALM      30.36F
HEBER CITY     PTCLDY    18  14  86 SE3       30.37F
WEST JORDAN    CLOUDY    32  21  64 S18       30.37F WCI  20

$$

UTZ012>022-026-027-251200-

SOUTHERN/CENTRAL UTAH

CITY           SKY/WX    TMP DP  RH WIND       PRES   REMARKS
BLANDING       CLEAR     21   7  54 CALM      30.46R
BRYCE CANYON   CLEAR      8   3  80 CALM      30.40F
CEDAR CITY     PTCLDY    16  10  77 CALM      30.43S
DELTA          MOCLDY    20  17  88 NE5       30.43F WCI  13
MILFORD        PTCLDY    20  12  71 S12       30.42F WCI   8
MOAB/CYNLANDS  CLEAR     19   5  54 CALM      30.38S
PRICE          CLEAR     18   8  65 N7        30.35S WCI   9
ST GEORGE      MOSUNNY   34   5  29 SE6       30.50S WCI  29
KANAB          PTCLDY    14   3  62 NE5       30.51S WCI   6

$$

REGIONAL REPORTS     COLORADO/ARIZONA

CITY           SKY/WX    TMP DP  RH WIND       PRES   REMARKS
CRAIG, CO      CLOUDY    13   7  77 CALM      30.29F
GRAND JUNCTION MOCLDY    24  15  68 SE14      30.39S WCI  12
RIFLE          CLOUDY    13  10  88 SE3       30.39F
MONTROSE       PTCLDY    17  10  74 SE9       30.41F WCI   6
CORTEZ         CLEAR     11   6  81 E6        30.41S WCI   1
PAGE, AZ       NOT AVBL
GRAND CANYON   MOCLDY     5  -9  52 CALM      30.46S
KINGMAN        PTCLDY    27   3  35 E5        30.45F WCI  22
FLAGSTAFF      PTCLDY    20  -1  40 CALM      30.43S

$$

REGIONAL REPORTS    NEVADA/IDAHO/WYOMING

CITY           SKY/WX    TMP DP  RH WIND       PRES   REMARKS
LAS VEGAS, NV  CLEAR     43  10  26 SW9       30.41F
ELY            PTCLDY    14  32 100 S13       30.47R WCI   0
ELKO           CLOUDY    34  23  64 S5        30.43S WCI  30
POCATELLO, ID  CLOUDY    38  23  55 S17G25    30.24F WCI  28
BURLEY         CLOUDY    39  29  67 W12       30.25F WCI  32
EVANSTON, WY   PTCLDY    19  11  70 SW15      30.26F WCI   5
ROCK SPRINGS   CLOUDY    22  11  62 W20G31    30.17F WCI   7

$$


USA.gov is the U.S. government's official web portal to all federal, state and local government web resources and services.